Regional Weather Roundup
Issued by NWS

Current Version | Previous Version | Text Only | Print | Product List | Glossary Off
Versions: 1 2 3 4 5 6 7 8 9 10 11 12 13 14 15 16 17 18 19 20 21 22 23 24 25 26 27 28 29 30 31 32 33 34 35 36 37 38 39 40 41 42 43 44 45 46 47 48 49 50

000
ASUS44 KJAN 250803
RWRMS

MISSISSIPPI HOURLY WEATHER ROUNDUP
NATIONAL WEATHER SERVICE JACKSON MS
300 AM CDT MON JUL 25 2016

NOTE: "FAIR: INDICATES FEW OR NO CLOUDS BELOW 12,000 FEET WITH NO
SIGNIFICANT WEATHER AND/OR OBSTRUCTIONS TO VISIBILITY.

MSZ001>002-007>008-010>013-018>021-025>028-034>036-250900-
NORTHWEST MISSISSIPPI

CITY           SKY/WX    TMP DP  RH WIND       PRES   REMARKS
CLEVELAND      FAIR      75  75 100 CALM      29.97S
GREENWOOD      CLEAR     75  72  90 CALM      29.97S
GREENVILLE     CLEAR     75  72  90 CALM      29.97S
OXFORD         FAIR      73  73 100 CALM      30.00S
WINONA         FAIR      72  72 100 CALM      29.98R FOG
$$

MSZ003>006-009-014>017-022>024-029>033-037>039-250900-
NORTHEAST MISSISSIPPI

CITY           SKY/WX    TMP DP  RH WIND       PRES   REMARKS
ABERDEEN       FAIR      73  57  56 CALM      29.99R HAZE
COLUMBUS AFB   CLEAR     76  76 100 CALM      29.98R
GOLDN TRIANGLE CLEAR     75  70  83 W3        29.98R
TUPELO         CLEAR     78  74  87 CALM      29.98R
$$

MSZ040-058-250900-
CENTRAL MISSISSIPPI

CITY           SKY/WX    TMP DP  RH WIND       PRES   REMARKS
JACKSON INTL   CLEAR     74  72  93 SE3       29.96F
JACKSON HAWKNS CLEAR     75  72  90 CALM      29.97S
MADISON        FAIR      72  70  94 CALM      29.96S
MERIDIAN KEY   CLEAR     76  73  91 CALM      29.99R
MERIDIAN NAS   CLEAR     75  70  84 CALM      29.98R
VICKSBURG VKS  SUNNY     75  73  94 CALM      29.96R
$$

MSZ059>079-250900-
SOUTH MISSISSIPPI

CITY           SKY/WX    TMP DP  RH WIND       PRES   REMARKS
BROOKHAVEN     FAIR     N/A N/A N/A CALM      29.97S FOG
COLUMBIA       FAIR      73  72  94 CALM      29.99S FOG
HATTIESBURG    FOG       75  74  96 CALM      29.96F VSB 1/2
MCCOMB         PTCLDY    75  72  90 CALM      29.96R
NATCHEZ        PTCLDY    73  70  88 CALM      29.95S
PINE BELT      CLOUDY    73  70  88 CALM      29.98S VSB 1/4
$$

MSZ080>082-250900-
COASTAL MISSISSIPPI

CITY           SKY/WX    TMP DP  RH WIND       PRES   REMARKS
BILOXI         MOCLDY    80  78  92 NE5       29.92F
PASCAGOULA     CLEAR     76  76 100 CALM      29.93S
GULFPORT       PTCLDY    79  76  90 CALM      29.92F
$$

LAZ007>009-015>016-023>026-250900-
NORTHEAST LOUISIANA

CITY           SKY/WX    TMP DP  RH WIND       PRES   REMARKS
BASTROP        CLOUDY    73  72  98 CALM      29.98S FOG
TALLULAH/VBURG PTCLDY    75  73  93 E3        29.95R FOG
VIDALIA        FAIR      75  73  92 CALM      29.97S
$$




USA.gov is the U.S. government's official web portal to all federal, state and local government web resources and services.